User: anonymous   Login
Location: Unspecified
(0.0000°N, 0.0000°E)
Time: 22:27:39
(UTC+00:00)
Language:

TBA - TO BE ASSIGNED - Orbit

View from above orbital plane
View from above orbital plane
View from above satellite
View from above satellite

Ground track
Ground track

The orbit is defined by the following mean orbital elements,

1 68862U          26145.58335647 +.00000000 +00000-0 +41490-3 0 00003
2 68862  97.2853 160.3184 0001203 101.5508 217.8347 15.49173659    07
Epoch (UTC): 25 May 2026 14:00:01
Eccentricity: 0.0001203
inclination: 97.2853°
perigee height: 418 km
apogee height: 420 km
right ascension of ascending node: 160.3184°
argument of perigee: 101.5508°
revolutions per day: 15.49173659
mean anomaly at epoch: 217.8347°

The dashed part of the orbit path shows where the satellite is in the earth's shadow,  

DLR